Huvudsida
METAR-TAF:

METAR-TAF

Flygplatser :

Stillwater, Oklahoma, USA

latitud: 36-09-44N, longitud: 097-05-21W, höjd: 300 m

Aktuellt väderrapport

Denna rapport gjordes för 1 timme och 2 minuter sedan, klockan 01:53 UTC
Stilla vind
Temperatur 2°C
Fuktighet 44%
Tryck 1030 hPa
Sikt: 16.1 km
Klar himmel

METAR: KSWO 110153Z AUTO 00000KT 10SM CLR 02/M09 A3041 RMK AO2 SLP305 T00221089

Tid: 20:55 (02:55 UTC)


TAF: saknas

Aktuella väderrapporter och prognoser från 4000 flygplatser (METAR- och TAF-rapporter).

De tillgängliga stationerna syns som gula och röda prickar på kartan.

För musen över prickarna för att se namnen på stationerna.

Klicka sedan för att få väderrapporter och prognoser.

För att ändra kartan: Klicka på de gröna knapparna med ett svart kors på för att zooma in; den gröna knappen med ett streck på för att zooma ut; eller på de gröna pilarna för angränsande kartor.


METAR-TAF: